Location: Unspecified
(0.0000°N, 0.0000°E)
Time: 04:37:10
(UTC+00:00)

Oscar 19 - Visible Passes

Search period start: 16 April 2024 00:00
Search period end: 26 April 2024 00:00
Orbit: 771 x 788 km, 98.9° (Epoch: 15 April)

Date Brightness Start Highest point End Pass type
(mag) Time Alt. Az. Time Alt. Az. Time Alt. Az.
16 Apr 10.7 04:54:38 10° N 04:59:43 58° WNW 05:04:49 10° SSW visible
17 Apr 11.3 04:22:19 10° NNE 04:27:23 56° ESE 04:32:28 10° S visible
18 Apr 12.8 03:51:05 10° NE 03:55:04 23° ESE 03:59:03 10° SSE visible
18 Apr 11.8 05:30:03 10° NNW 05:34:00 22° WNW 05:37:59 10° SW visible
19 Apr 10.7 04:56:38 10° N 05:01:41 56° WNW 05:06:46 10° SSW visible
20 Apr 11.2 04:24:16 10° NNE 04:29:21 59° ESE 04:34:27 10° S visible
21 Apr 12.8 03:52:57 10° NE 03:57:02 23° ESE 04:01:06 10° SSE visible
21 Apr 11.9 05:32:07 10° NNW 05:35:59 21° WNW 05:39:52 10° SW visible
22 Apr 10.8 04:58:37 10° N 05:03:39 53° WNW 05:08:42 10° SSW visible
23 Apr 11.1 04:26:12 10° NNE 04:31:18 61° ESE 04:36:26 10° S visible
24 Apr 12.7 03:54:50 10° NE 03:58:59 24° ESE 04:03:08 10° SSE visible
25 Apr 10.8 05:00:36 10° N 05:05:36 51° WNW 05:10:38 10° SSW visible
